Location: Blue Mountain Vista Observatory
(40.6992°N, 75.9422°W)
Time: 10:01:03
(UTC-04:00)

Daily predictions for brighter satellites

Satellite Brightness Start Highest point End
(mag) Time Altitude Azimuth Time Altitude Azimuth Time Altitude Azimuth
Meteor 2-4 Rocket 4.2 20:09:08 10° N 20:14:24 40° ENE 20:19:46 10° SE
Cosmos 1536 3.7 20:11:09 10° SSE 20:14:39 29° E 20:18:10 10° NNE
Okean 1 Rocket 4.3 20:12:09 10° SE 20:15:27 21° E 20:18:47 10° NE
ATLAS 3B R/B 3.6 20:10:24 10° NNW 20:16:22 32° NE 20:22:07 10° ESE
Spot 2 Rocket 3.9 20:12:13 10° SE 20:17:04 46° ENE 20:21:55 10° N
CZ-2D R/B 3.4 20:14:21 10° SSE 20:18:07 56° ENE 20:21:54 10° N
USA 186 2.6 20:16:09 10° SE 20:19:15 35° ENE 20:22:22 10° N
Cosmos 1939 Rocket 4.2 20:16:44 10° ESE 20:19:46 22° ENE 20:22:48 10° NNE
Cosmos 1633 3.6 20:18:12 10° SSW 20:21:44 52° W 20:25:19 10° N
H-2A R/B 3.3 20:20:36 10° S 20:24:20 59° W 20:28:03 10° NNW
Tiangong 1 1.0 20:21:36 10° WNW 20:24:22 62° SSW 20:27:02 11° ESE
ALOS 4.3 20:26:46 10° SSW 20:30:54 31° W 20:35:03 10° NNW
USA 267 3.4 20:24:42 10° SE 20:31:15 82° SW 20:37:52 10° NW
Cosmos 1553 Rocket 4.0 20:26:32 10° N 20:32:42 84° E 20:38:46 10° S
S3M 4.0 20:26:28 10° N 20:32:47 78° E 20:39:09 10° S
NOSS 2-3 (D) 3.9 20:28:52 10° SSW 20:33:30 88° SE 20:38:53 10° NE
Meteor 1-13 Rocket 4.4 20:27:41 10° N 20:33:42 83° E 20:39:36 10° S
Cosmos 2266 Rocket 4.2 20:28:40 10° SSE 20:34:25 48° E 20:40:10 10° NNE
YAOGAN 6 3.9 20:35:41 12° ESE 20:38:00 22° ENE 20:40:46 10° NNE
Resurs 01 Rocket 1.7 20:37:36 10° SSE 20:42:03 87° WSW 20:46:32 10° NNW
Cosmos 2151 Rocket 4.0 20:38:57 10° SSW 20:43:18 67° W 20:47:42 10° N
Cosmos 2263 Rocket 2.2 20:40:28 10° NNW 20:46:13 83° ENE 20:51:53 10° SSE
Envisat 3.0 20:41:24 10° SSE 20:46:26 69° ENE 20:51:30 10° N
Abrixas 3.3 20:46:28 10° SSW 20:48:40 24° SE 20:49:12 22° ESE
Cosmos 1741 Rocket 4.1 20:43:44 10° NNW 20:49:00 81° WSW 20:54:16 10° SSE
Cosmos 2315 Rocket 4.5 20:43:46 10° N 20:49:40 41° ENE 20:55:06 12° SE
Cosmos 1536 Rocket 3.8 20:47:15 10° NNW 20:51:34 70° W 20:55:53 10° S
Cosmos 1844 Rocket 4.1 20:47:34 10° N 20:51:58 22° NE 20:55:09 14° E
Cosmos 2322 Rocket 2.9 20:47:29 10° SW 20:53:06 58° WNW 20:58:43 10° NNE
Cosmos 2278 Rocket 4.4 20:52:48 10° NE 20:53:09 10° NE 20:53:30 10° NE
Lacrosse 5 2.1 20:49:13 10° SW 20:54:17 74° NW 20:59:22 10° NE
Atlas Centaur 2 4.1 20:49:41 10° WSW 20:56:52 31° SSW 21:02:22 14° SE
ATLAS 2AS CENTAUR R/B 3.1 20:52:08 10° SSW 20:59:48 89° NW 21:08:00 10° NE
Cosmos 2237 4.5 20:59:29 10° S 21:04:50 44° ESE 21:10:13 10° NE
Helios 1B rocket 3.0 21:01:50 10° NNE 21:05:39 36° E 21:08:10 18° SSE
Cosmos 1515 4.4 21:03:16 10° N 21:06:47 34° ENE 21:08:00 27° ESE
SL-16 R/B 3.4 21:01:24 10° SW 21:06:49 45° WNW 21:12:16 10° NNE
SJ-11-01 4.2 21:03:17 13° SSE 21:07:28 74° ENE 21:12:09 10° N
H-2A R/B 3.7 21:06:17 14° E 21:07:37 16° ENE 21:10:29 10° NNE
Cosmos 2219 Rocket 3.5 21:08:27 19° E 21:08:27 19° E 21:12:11 10° NE
NOSS 3-4 (A) 4.5 21:09:43 21° SE 21:11:14 23° ESE 21:16:00 10° ENE
NOSS 3-4 (C) 4.5 21:10:16 21° SE 21:11:20 22° ESE 21:16:05 10° ENE
FALCON 9 R/B 4.5 21:19:39 15° E 21:19:39 15° E 21:24:03 10° E
Cosmos 1110 Rocket 3.9 21:10:57 10° SSW 21:16:07 86° ESE 21:21:20 10° NNE
Cosmos 2322 3.6 21:14:27 10° SSW 21:20:06 78° ESE 21:25:47 10° NNE
Cosmos 1500 3.6 21:19:38 35° SE 21:20:34 42° E 21:24:15 10° NNE
Delta 2 Rocket 3.8 21:17:40 10° WSW 21:21:26 41° S 21:22:33 34° SE
SeaSat 1 2.4 21:16:46 10° NNE 21:21:44 87° ESE 21:26:40 10° SSW
SAR-Lupe-4 4.3 21:23:05 34° E 21:23:25 35° ENE 21:26:43 10° N
Cosmos 2360 Rocket 2.3 21:18:41 10° SSW 21:24:19 80° WNW 21:29:59 10° NNE
Meteor 1-23 Rocket 4.5 21:20:27 10° NNW 21:26:00 69° W 21:31:32 10° S
Abrixas rocket 3.5 21:23:35 10° NW 21:26:34 31° NNE 21:27:31 26° NE
Cosmos 405 3.5 21:27:10 40° E 21:27:10 40° E 21:30:20 10° NNE
Cosmos 1331 Rocket 4.0 21:22:02 10° SSW 21:27:13 85° WNW 21:32:29 10° NNE
Okean 2 3.2 21:23:28 10° N 21:27:34 78° E 21:29:21 32° SSE
OPS 6432 4.2 21:24:38 10° SSW 21:28:23 79° ESE 21:31:28 10° NE
Cosmos 482 Debris 3.7 21:26:13 10° SW 21:30:38 75° SE 21:31:10 57° ENE
Cosmos 1455 Rocket 3.9 21:32:44 32° E 21:32:44 32° E 21:36:26 10° NNE
COSMOS 2428 2.8 21:27:38 10° S 21:33:11 54° ESE 21:38:45 10° NNE
Cosmos 1975 3.1 21:33:35 43° E 21:33:35 43° E 21:37:22 10° NNE
Cosmos 1844 4.4 21:31:54 10° N 21:37:10 37° ENE 21:38:50 31° E
Cosmos 1241 Rocket 4.5 21:31:53 10° SSW 21:38:23 67° ESE 21:44:49 10° NE
SAR-Lupe-1 4.4 21:40:18 46° ENE 21:40:18 46° ENE 21:43:35 10° N
CZ-4B DEB 2.9 21:42:43 58° NNW 21:42:43 58° NNW 21:45:06 10° NNW
Meteor 1-12 Rocket 4.3 21:42:25 34° SSE 21:44:37 55° E 21:50:08 10° NNE
MetOp-A 4.1 21:42:58 39° SE 21:44:51 64° ENE 21:50:09 10° N
NOAA 11 4.1 21:42:55 33° SSE 21:45:30 81° ENE 21:51:02 10° NNW
Cosmos 2333 Rocket 3.1 21:47:12 30° E 21:47:12 30° E 21:51:05 10° NE
Cosmos 1025 Rocket 3.7 21:44:08 10° NNW 21:48:17 51° W 21:50:37 24° SSW
Cosmos 2333 4.0 21:45:59 10° SSW 21:51:36 71° ESE 21:57:13 10° NNE
NOSS 3-2 (A) 4.2 21:47:00 10° NNW 21:54:28 62° NE 21:57:47 37° ESE
Nadezhda 1 Rocket 4.4 21:50:51 10° N 21:56:56 46° ENE 21:58:08 41° ESE
Cosmos 2237 Rocket 3.8 22:00:25 19° ENE 22:00:25 19° ENE 22:02:26 10° NE
USA 238 DEB 3.8 21:50:51 10° NW 21:57:58 78° WSW 22:01:04 37° SSE
USA 238 3.8 21:50:57 10° NW 21:58:04 78° WSW 22:01:09 37° SSE
Cosmos 1437 Rocket 4.2 22:01:26 28° NE 22:01:26 28° NE 22:03:32 10° NNE
Helios 1A 4.2 22:01:08 25° SSW 22:03:00 38° W 22:06:59 10° NNW
ATLAS 3B R/B 3.0 22:00:52 10° NW 22:07:23 57° WSW 22:09:58 35° S
Cosmos 1238 Rocket 4.0 22:00:54 10° N 22:07:36 82° W 22:10:05 39° S
ERS-1 Rocket 3.1 22:06:57 46° SSW 22:08:23 69° WSW 22:13:25 10° NNW
Cosmos 1818 3.6 22:03:03 10° SW 22:08:28 78° WNW 22:13:57 10° NNE
SPOT 1/Viking Rocket 3.7 22:08:49 52° E 22:09:03 52° ENE 22:14:06 10° N
SL-8 R/B 3.6 22:04:18 10° WNW 22:09:04 69° SW 22:09:13 68° SSW
Cosmos 1503 Rocket 4.1 22:07:42 10° NNW 22:13:02 62° ENE 22:13:20 61° E
ARGOS 3.0 22:12:31 60° S 22:13:34 87° W 22:18:58 10° NNW
SL-08 R/B 4.4 22:10:49 37° S 22:13:35 87° E 22:19:56 10° N
Cosmos 1066 Rocket 4.2 22:08:43 10° NNW 22:14:11 78° W 22:15:33 52° S
SL-08 RB Rocket 3.6 22:15:40 78° NE 22:15:40 78° NE 22:20:01 10° N
H-2A R/B 4.4 22:20:29 14° NE 22:20:29 14° NE 22:21:44 10° NNE
YAOGAN 11 4.5 22:27:10 60° N 22:27:10 60° N 22:30:43 10° NNW
Cosmos 1743 4.2 22:29:25 32° N 22:29:25 32° N 22:31:37 10° N
Aureole 3 Rocket 4.5 22:21:41 10° NNW 22:29:27 61° W 22:31:40 39° SSW
USA 245 4.0 22:31:49 61° W 22:31:49 61° W 22:35:35 10° NNW
SPOT 5 2.9 22:31:51 71° WNW 22:31:51 71° WNW 22:36:15 10° NNW
COSMOS 2455 4.3 22:28:59 10° N 22:33:42 23° NE 22:34:25 22° NE
NOSS 3-2 (C) 3.9 22:27:22 10° NNW 22:34:59 81° NE 22:36:46 58° SE
Cosmos 2292 Rocket 4.5 22:33:59 65° SSE 22:34:59 78° E 22:40:44 10° N
Cosmos 1844 Rocket 3.0 22:30:41 10° NNW 22:36:15 57° WSW 22:36:49 54° SW
NOSS 0 Rocket 3.8 22:38:09 72° E 22:38:09 72° E 22:44:03 10° NNE
Lacrosse 5 4.4 22:34:17 10° WNW 22:38:01 20° NNW 22:41:46 10° NNE
Cosmos 2278 Rocket 2.4 22:32:53 10° NNW 22:38:10 57° NE 22:38:10 57° NE
H-2A R/B 2.3 22:46:54 61° WNW 22:46:54 61° WNW 22:51:28 10° NNW
Meteor 1-21 4.2 22:41:29 10° N 22:46:52 81° NNW 22:46:52 81° NNW
Landsat 7 4.5 22:48:56 52° N 22:48:56 52° N 22:52:32 10° NNW
Cosmos 2219 Rocket 2.7 22:50:03 42° WSW 22:51:43 58° WNW 22:57:18 10° NNE
Cosmos 1745 Rocket 4.4 22:50:53 43° SW 22:52:35 57° W 22:58:38 10° N
Cosmos 968 Rocket 4.4 22:49:05 10° N 22:52:42 40° NNE 22:52:42 40° NNE
CENTAUR R/B 3.5 22:47:26 10° NNW 22:55:02 50° NE 22:56:35 45° E
Timation 1 Rocket 4.4 22:55:07 10° NNW 23:00:35 75° NW 23:00:35 75° NW
NOSS 3-4 (A) 3.8 22:56:26 16° SW 23:01:31 63° NW 23:07:58 10° NNE
NOSS 3-4 (C) 3.8 22:57:10 20° SW 23:01:38 63° NW 23:08:05 10° NNE
Terra 2.9 23:04:46 41° N 23:04:46 41° N 23:07:53 10° NNW
SL-16 R/B 4.1 23:11:39 19° NE 23:11:39 19° NE 23:13:18 10° NE
Cosmos 2333 Rocket 3.5 23:29:06 32° W 23:30:16 35° WNW 23:35:27 10° N
Cosmos 2237 Rocket 3.3 23:42:11 40° NW 23:42:11 40° NW 23:46:55 10° N
Cosmos 2369 Rocket 4.3 23:39:31 10° N 23:42:42 17° NE 23:42:42 17° NE
